Time,TemperatureF,DewpointF,PressureIn,WindDirection,WindDirectionDegrees,WindSpeedMPH,WindSpeedGustMPH,Humidity,HourlyPrecipIn,Conditions,Clouds,dailyrainin,SoftwareType,DateUTC
2013-08-18 00:01:00,65.4,61.8,30.09,ESE,102,0.0,0.0,88,0.00,,---,0.00,VWS V14.01,2013-08-18 05:01:00,
2013-08-18 00:30:00,65.4,61.8,30.09,ESE,102,0.0,0.0,88,0.00,,---,0.00,VWS V14.01,2013-08-18 05:30:00,
2013-08-18 01:00:00,65.4,61.8,30.08,ESE,102,0.0,1.0,88,0.00,,---,0.00,VWS V14.01,2013-08-18 06:00:00,
2013-08-18 01:30:00,65.6,62.0,30.09,ESE,102,0.0,1.0,88,0.00,,---,0.00,VWS V14.01,2013-08-18 06:30:00,
2013-08-18 02:00:00,66.0,62.0,30.08,ESE,102,0.0,4.0,87,0.00,,---,0.00,VWS V14.01,2013-08-18 07:00:00,
2013-08-18 02:31:00,66.1,61.8,30.08,ESE,102,0.0,4.0,86,0.00,,---,0.00,VWS V14.01,2013-08-18 07:31:00,
2013-08-18 03:00:00,66.1,61.5,30.08,ESE,102,0.0,1.0,85,0.00,,---,0.00,VWS V14.01,2013-08-18 08:00:00,
2013-08-18 03:31:00,65.5,62.5,30.08,ESE,102,0.0,1.0,90,0.02,,---,0.02,VWS V14.01,2013-08-18 08:31:00,
2013-08-18 04:00:00,64.7,62.3,30.08,ESE,102,0.0,0.0,92,0.02,,---,0.02,VWS V14.01,2013-08-18 09:00:00,
2013-08-18 04:30:00,64.2,61.8,30.08,ESE,102,0.0,1.0,92,0.02,,---,0.02,VWS V14.01,2013-08-18 09:30:00,
2013-08-18 05:00:00,64.0,61.0,30.07,ESE,102,1.0,2.0,90,0.00,,---,0.02,VWS V14.01,2013-08-18 10:00:00,
2013-08-18 05:30:00,63.7,61.0,30.09,ESE,102,0.0,1.0,91,0.00,,---,0.02,VWS V14.01,2013-08-18 10:30:00,
2013-08-18 06:00:00,63.5,60.8,30.09,ESE,102,0.0,1.0,91,0.00,,---,0.02,VWS V14.01,2013-08-18 11:00:00,
2013-08-18 06:30:00,63.4,61.0,30.09,ESE,102,0.0,0.0,92,0.00,,---,0.02,VWS V14.01,2013-08-18 11:30:00,
2013-08-18 07:00:00,63.9,61.2,30.10,ESE,102,1.0,4.0,91,0.00,,---,0.02,VWS V14.01,2013-08-18 12:00:00,
2013-08-18 07:30:00,64.8,61.5,30.11,East,87,3.0,5.0,89,0.00,,---,0.02,VWS V14.01,2013-08-18 12:30:00,
2013-08-18 08:00:00,65.0,61.7,30.13,East,86,0.0,4.0,89,0.00,,---,0.02,VWS V14.01,2013-08-18 13:00:00,
2013-08-18 08:30:00,65.3,62.3,30.14,East,86,0.0,2.0,90,0.00,,---,0.02,VWS V14.01,2013-08-18 13:30:00,
2013-08-18 09:00:00,64.9,62.8,30.14,East,86,0.0,0.0,93,0.09,,---,0.11,VWS V14.01,2013-08-18 14:00:00,
2013-08-18 09:30:00,65.5,64.0,30.14,East,86,0.0,1.0,95,0.09,,---,0.11,VWS V14.01,2013-08-18 14:30:00,
2013-08-18 10:00:00,67.2,65.4,30.14,East,86,0.0,2.0,94,0.09,,---,0.11,VWS V14.01,2013-08-18 15:00:00,
2013-08-18 10:30:00,70.6,66.9,30.14,ENE,58,2.0,6.0,88,0.00,,---,0.11,VWS V14.01,2013-08-18 15:30:00,
2013-08-18 11:00:00,74.0,66.7,30.13,NE,34,4.0,6.0,78,0.00,,---,0.11,VWS V14.01,2013-08-18 16:00:00,
2013-08-18 11:30:00,77.7,65.9,30.12,NNE,23,2.0,7.0,67,0.00,,---,0.11,VWS V14.01,2013-08-18 16:30:00,
2013-08-18 12:00:00,79.1,65.0,30.12,NNE,19,1.0,7.0,62,0.00,,---,0.11,VWS V14.01,2013-08-18 17:00:00,
2013-08-18 12:30:00,81.2,65.5,30.11,North,11,2.0,9.0,59,0.00,,---,0.11,VWS V14.01,2013-08-18 17:30:00,
2013-08-18 13:00:00,80.9,66.2,30.11,North,11,3.0,7.0,61,0.00,,---,0.11,VWS V14.01,2013-08-18 18:00:00,
2013-08-18 13:30:00,83.4,68.1,30.10,NNE,31,0.0,9.0,60,0.00,,---,0.11,VWS V14.01,2013-08-18 18:30:00,
2013-08-18 14:00:00,83.8,67.5,30.10,ENE,68,1.0,7.0,58,0.00,,---,0.11,VWS V14.01,2013-08-18 19:00:00,
2013-08-18 14:30:00,84.1,67.2,30.09,ENE,67,0.0,6.0,57,0.00,,---,0.11,VWS V14.01,2013-08-18 19:30:00,
2013-08-18 15:00:00,86.2,66.0,30.07,ESE,107,5.0,11.0,51,0.00,,---,0.11,VWS V14.01,2013-08-18 20:00:00,
2013-08-18 15:30:00,86.3,66.6,30.07,ESE,108,4.0,9.0,52,0.00,,---,0.11,VWS V14.01,2013-08-18 20:30:00,
2013-08-18 16:00:00,87.3,65.2,30.07,ESE,119,0.0,9.0,48,0.00,,---,0.11,VWS V14.01,2013-08-18 21:00:00,
2013-08-18 16:30:00,88.4,66.2,30.06,ESE,107,1.0,11.0,48,0.00,,---,0.11,VWS V14.01,2013-08-18 21:30:00,
2013-08-18 17:00:00,88.2,67.2,30.06,NE,53,0.0,10.0,50,0.00,,---,0.11,VWS V14.01,2013-08-18 22:00:00,
2013-08-18 17:30:00,87.8,67.4,30.05,East,90,2.0,7.0,51,0.00,,---,0.11,VWS V14.01,2013-08-18 22:30:00,
2013-08-18 18:00:00,87.3,65.8,30.05,East,90,0.0,6.0,49,0.00,,---,0.11,VWS V14.01,2013-08-18 23:00:00,
2013-08-18 18:31:00,85.9,65.7,30.04,East,90,0.0,6.0,51,0.00,,---,0.11,VWS V14.01,2013-08-18 23:31:00,
2013-08-18 19:00:00,81.7,65.5,30.04,East,94,0.0,4.0,58,0.00,,---,0.11,VWS V14.01,2013-08-19 00:00:00,
2013-08-18 19:30:00,78.8,65.6,30.05,East,94,0.0,2.0,64,0.00,,---,0.11,VWS V14.01,2013-08-19 00:30:00,
2013-08-18 20:00:00,75.8,65.3,30.05,East,94,0.0,0.0,70,0.00,,---,0.11,VWS V14.01,2013-08-19 01:00:00,
2013-08-18 20:31:00,73.1,64.7,30.06,East,94,0.0,0.0,75,0.00,,---,0.11,VWS V14.01,2013-08-19 01:31:00,
2013-08-18 21:00:00,71.1,65.0,30.06,East,94,0.0,0.0,81,0.00,,---,0.11,VWS V14.01,2013-08-19 02:00:00,
2013-08-18 21:30:00,69.7,64.7,30.07,East,94,0.0,0.0,84,0.00,,---,0.11,VWS V14.01,2013-08-19 02:30:00,
2013-08-18 22:00:00,68.6,64.2,30.08,East,94,0.0,0.0,86,0.00,,---,0.11,VWS V14.01,2013-08-19 03:00:00,
2013-08-18 22:30:00,67.7,64.0,30.08,East,94,0.0,0.0,88,0.00,,---,0.11,VWS V14.01,2013-08-19 03:30:00,
2013-08-18 23:00:00,67.0,63.7,30.07,East,94,0.0,0.0,89,0.00,,---,0.11,VWS V14.01,2013-08-19 04:00:00,
2013-08-18 23:31:00,66.4,63.7,30.08,East,94,0.0,0.0,91,0.00,,---,0.11,VWS V14.01,2013-08-19 04:31:00,